Time,TemperatureF,DewpointF,PressureIn,WindDirection,WindDirectionDegrees,WindSpeedMPH,WindSpeedGustMPH,Humidity,HourlyPrecipIn,Conditions,Clouds,dailyrainin,SolarRadiationWatts/m^2,SoftwareType,DateUTC
2013-07-05 00:02:00,63.0,42.0,-100.00,SE,134,0.0,5.0,46,0.00,,,0.00,0.000000,,2013-07-05 06:02:00,
2013-07-05 00:13:00,63.0,42.0,-100.00,SE,134,0.0,5.0,46,0.00,,,0.00,0.000000,,2013-07-05 06:13:00,
2013-07-05 00:23:00,63.0,42.0,-100.00,SE,134,0.0,5.0,46,0.00,,,0.00,0.000000,,2013-07-05 06:23:00,
2013-07-05 00:53:00,62.0,41.0,-100.00,SE,128,0.0,6.0,46,0.00,,,-99.99,0.000000,,2013-07-05 06:53:00,
2013-07-05 01:02:00,62.0,41.0,-100.00,SE,128,0.0,6.0,46,0.00,,,-99.99,0.000000,,2013-07-05 07:02:00,
2013-07-05 01:12:00,62.0,41.0,-100.00,SE,128,0.0,6.0,46,0.00,,,-99.99,0.000000,,2013-07-05 07:12:00,
2013-07-05 01:23:00,62.0,41.0,-100.00,SE,128,0.0,6.0,46,0.00,,,-99.99,0.000000,,2013-07-05 07:23:00,
2013-07-05 01:53:00,61.0,44.0,-100.00,ESE,105,0.0,4.0,53,0.00,,,0.00,0.000000,,2013-07-05 07:53:00,
2013-07-05 02:02:00,61.0,44.0,-100.00,ESE,105,0.0,4.0,53,0.00,,,0.00,0.000000,,2013-07-05 08:02:00,
2013-07-05 02:12:00,61.0,44.0,-100.00,ESE,105,0.0,4.0,53,0.00,,,0.00,0.000000,,2013-07-05 08:12:00,
2013-07-05 02:22:00,61.0,44.0,-100.00,ESE,105,0.0,4.0,53,0.00,,,0.00,0.000000,,2013-07-05 08:22:00,
2013-07-05 02:56:00,58.0,43.0,-100.00,ESE,122,0.0,4.0,57,0.00,,,0.00,0.000000,,2013-07-05 08:56:00,
2013-07-05 03:05:00,58.0,43.0,-100.00,ESE,122,0.0,4.0,57,0.00,,,0.00,0.000000,,2013-07-05 09:05:00,
2013-07-05 03:24:00,58.0,43.0,-100.00,ESE,122,0.0,4.0,57,0.00,,,0.00,0.000000,,2013-07-05 09:24:00,
2013-07-05 03:56:00,56.0,43.0,-100.00,ESE,119,0.0,3.0,61,0.00,,,0.00,0.000000,,2013-07-05 09:56:00,
2013-07-05 04:05:00,56.0,43.0,-100.00,ESE,119,0.0,3.0,61,0.00,,,0.00,0.000000,,2013-07-05 10:05:00,
2013-07-05 04:14:00,56.0,43.0,-100.00,ESE,119,0.0,3.0,61,0.00,,,0.00,0.000000,,2013-07-05 10:14:00,
2013-07-05 04:23:00,56.0,43.0,-100.00,ESE,119,0.0,3.0,61,0.00,,,0.00,0.000000,,2013-07-05 10:23:00,
2013-07-05 04:57:00,51.0,42.0,-100.00,ENE,77,0.0,3.0,71,0.00,,,0.00,0.000000,,2013-07-05 10:57:00,
2013-07-05 05:04:00,51.0,42.0,-100.00,ENE,77,0.0,3.0,71,0.00,,,0.00,0.000000,,2013-07-05 11:04:00,
2013-07-05 05:14:00,51.0,42.0,-100.00,ENE,77,0.0,3.0,71,0.00,,,0.00,0.000000,,2013-07-05 11:14:00,
2013-07-05 05:23:00,51.0,42.0,-100.00,ENE,77,0.0,3.0,71,0.00,,,0.00,0.000000,,2013-07-05 11:23:00,
2013-07-05 06:05:00,50.0,42.0,-100.00,ENE,75,0.0,0.0,75,0.00,,,0.00,0.000000,,2013-07-05 12:05:00,
2013-07-05 06:23:00,50.0,42.0,-100.00,ENE,75,0.0,0.0,75,0.00,,,0.00,0.000000,,2013-07-05 12:23:00,
2013-07-05 06:59:00,49.0,43.0,-100.00,NNE,28,0.0,0.0,79,0.00,,,0.00,0.000000,,2013-07-05 12:59:00,
2013-07-05 07:04:00,49.0,43.0,-100.00,NNE,28,0.0,0.0,79,0.00,,,0.00,0.000000,,2013-07-05 13:04:00,
2013-07-05 07:12:00,49.0,43.0,-100.00,NNE,28,0.0,0.0,79,0.00,,,0.00,0.000000,,2013-07-05 13:12:00,
2013-07-05 07:23:00,49.0,43.0,-100.00,NNE,28,0.0,0.0,79,0.00,,,0.00,0.000000,,2013-07-05 13:23:00,
2013-07-05 07:58:00,49.0,43.0,-100.00,NNE,13,0.0,0.0,80,0.00,,,0.00,11.000000,,2013-07-05 13:58:00,
2013-07-05 08:12:00,49.0,43.0,-100.00,NNE,13,0.0,0.0,80,0.00,,,0.00,11.000000,,2013-07-05 14:12:00,
2013-07-05 08:23:00,49.0,43.0,-100.00,NNE,13,0.0,0.0,80,0.00,,,0.00,11.000000,,2013-07-05 14:23:00,
2013-07-05 08:56:00,53.0,43.0,-100.00,North,350,0.0,0.0,70,0.00,,,0.00,57.000000,,2013-07-05 14:56:00,
2013-07-05 09:05:00,53.0,43.0,-100.00,North,350,0.0,0.0,70,0.00,,,0.00,57.000000,,2013-07-05 15:05:00,
2013-07-05 09:13:00,53.0,43.0,-100.00,North,350,0.0,0.0,70,0.00,,,0.00,57.000000,,2013-07-05 15:13:00,
2013-07-05 09:22:00,53.0,43.0,-100.00,North,350,0.0,0.0,70,0.00,,,0.00,57.000000,,2013-07-05 15:22:00,
2013-07-05 09:53:00,59.0,41.0,-100.00,WNW,293,0.0,0.0,52,-99.99,,,0.00,108.000000,,2013-07-05 15:53:00,
2013-07-05 10:22:00,59.0,41.0,-100.00,WNW,293,0.0,0.0,52,-99.99,,,0.00,108.000000,,2013-07-05 16:22:00,
2013-07-05 10:53:00,68.0,43.0,-100.00,WNW,293,2.0,2.0,41,-99.99,,,0.00,555.000000,,2013-07-05 16:53:00,
2013-07-05 11:01:00,68.0,43.0,-100.00,WNW,293,2.0,2.0,41,-99.99,,,0.00,555.000000,,2013-07-05 17:01:00,
2013-07-05 11:12:00,68.0,43.0,-100.00,WNW,293,2.0,2.0,41,-99.99,,,0.00,555.000000,,2013-07-05 17:12:00,
2013-07-05 11:22:00,68.0,43.0,-100.00,WNW,293,2.0,2.0,41,-99.99,,,0.00,555.000000,,2013-07-05 17:22:00,
2013-07-05 11:53:00,73.0,41.0,-100.00,WNW,285,4.0,5.0,32,0.00,,,0.00,717.000000,,2013-07-05 17:53:00,
2013-07-05 12:01:00,73.0,41.0,-100.00,WNW,285,4.0,5.0,32,0.00,,,0.00,717.000000,,2013-07-05 18:01:00,
2013-07-05 12:11:00,73.0,41.0,-100.00,WNW,285,4.0,5.0,32,0.00,,,0.00,717.000000,,2013-07-05 18:11:00,
2013-07-05 12:22:00,73.0,41.0,-100.00,WNW,285,4.0,5.0,32,0.00,,,0.00,717.000000,,2013-07-05 18:22:00,
2013-07-05 12:53:00,76.0,42.0,-100.00,WNW,286,4.0,8.0,30,0.00,,,0.00,846.000000,,2013-07-05 18:53:00,
2013-07-05 13:01:00,76.0,42.0,-100.00,WNW,286,4.0,8.0,30,0.00,,,0.00,846.000000,,2013-07-05 19:01:00,
2013-07-05 13:12:00,76.0,42.0,-100.00,WNW,286,4.0,8.0,30,0.00,,,0.00,846.000000,,2013-07-05 19:12:00,
2013-07-05 13:22:00,76.0,42.0,-100.00,WNW,286,4.0,8.0,30,0.00,,,0.00,846.000000,,2013-07-05 19:22:00,
2013-07-05 13:53:00,79.0,41.0,-100.00,WNW,287,5.0,11.0,26,0.00,,,0.00,946.000000,,2013-07-05 19:53:00,
2013-07-05 14:01:00,79.0,41.0,-100.00,WNW,287,5.0,11.0,26,0.00,,,0.00,946.000000,,2013-07-05 20:01:00,
2013-07-05 14:11:00,79.0,41.0,-100.00,WNW,287,5.0,11.0,26,0.00,,,0.00,946.000000,,2013-07-05 20:11:00,
2013-07-05 14:22:00,79.0,41.0,-100.00,WNW,287,5.0,11.0,26,0.00,,,0.00,946.000000,,2013-07-05 20:22:00,
2013-07-05 14:53:00,78.0,42.0,-100.00,West,279,3.0,10.0,28,0.00,,,0.00,676.000000,,2013-07-05 20:53:00,
2013-07-05 15:01:00,78.0,42.0,-100.00,West,279,3.0,10.0,28,0.00,,,0.00,676.000000,,2013-07-05 21:01:00,
2013-07-05 15:11:00,78.0,42.0,-100.00,West,279,3.0,10.0,28,0.00,,,0.00,676.000000,,2013-07-05 21:11:00,
2013-07-05 15:21:00,78.0,42.0,-100.00,West,279,3.0,10.0,28,0.00,,,0.00,676.000000,,2013-07-05 21:21:00,
2013-07-05 15:53:00,78.0,43.0,-100.00,WNW,285,5.0,11.0,29,0.00,,,0.00,212.000000,,2013-07-05 21:53:00,
2013-07-05 16:01:00,78.0,43.0,-100.00,WNW,285,5.0,11.0,29,0.00,,,0.00,212.000000,,2013-07-05 22:01:00,
2013-07-05 16:11:00,78.0,43.0,-100.00,WNW,285,5.0,11.0,29,0.00,,,0.00,212.000000,,2013-07-05 22:11:00,
2013-07-05 16:21:00,78.0,43.0,-100.00,WNW,285,5.0,11.0,29,0.00,,,0.00,212.000000,,2013-07-05 22:21:00,
2013-07-05 17:53:00,76.0,47.0,-100.00,WNW,282,5.0,24.0,36,-99.99,,,0.00,732.000000,,2013-07-05 23:53:00,
2013-07-05 18:01:00,76.0,47.0,-100.00,WNW,282,5.0,24.0,36,-99.99,,,0.00,732.000000,,2013-07-06 00:01:00,
2013-07-05 18:11:00,76.0,47.0,-100.00,WNW,282,5.0,24.0,36,-99.99,,,0.00,732.000000,,2013-07-06 00:11:00,
2013-07-05 18:22:00,76.0,47.0,-100.00,WNW,282,5.0,24.0,36,-99.99,,,0.00,732.000000,,2013-07-06 00:22:00,
2013-07-05 18:53:00,75.0,45.0,-100.00,WNW,283,3.0,14.0,35,0.00,,,0.00,504.000000,,2013-07-06 00:53:00,
2013-07-05 19:02:00,75.0,45.0,-100.00,WNW,283,3.0,14.0,35,0.00,,,0.00,504.000000,,2013-07-06 01:02:00,
2013-07-05 19:12:00,75.0,45.0,-100.00,WNW,283,3.0,14.0,35,0.00,,,0.00,504.000000,,2013-07-06 01:12:00,
2013-07-05 19:22:00,75.0,45.0,-100.00,WNW,283,3.0,14.0,35,0.00,,,0.00,504.000000,,2013-07-06 01:22:00,
2013-07-05 19:53:00,78.0,45.0,-100.00,WNW,283,3.0,10.0,31,0.00,,,0.00,390.000000,,2013-07-06 01:53:00,
2013-07-05 20:02:00,78.0,45.0,-100.00,WNW,283,3.0,10.0,31,0.00,,,0.00,390.000000,,2013-07-06 02:02:00,
2013-07-05 20:11:00,78.0,45.0,-100.00,WNW,283,3.0,10.0,31,0.00,,,0.00,390.000000,,2013-07-06 02:11:00,
2013-07-05 20:22:00,78.0,45.0,-100.00,WNW,283,3.0,10.0,31,0.00,,,0.00,390.000000,,2013-07-06 02:22:00,
2013-07-05 20:53:00,75.0,47.0,-100.00,NNW,339,0.0,9.0,37,0.00,,,0.00,173.000000,,2013-07-06 02:53:00,
2013-07-05 21:02:00,75.0,47.0,-100.00,NNW,339,0.0,9.0,37,0.00,,,0.00,173.000000,,2013-07-06 03:02:00,
2013-07-05 21:11:00,75.0,47.0,-100.00,NNW,339,0.0,9.0,37,0.00,,,0.00,173.000000,,2013-07-06 03:11:00,
2013-07-05 21:22:00,75.0,47.0,-100.00,NNW,339,0.0,9.0,37,0.00,,,0.00,173.000000,,2013-07-06 03:22:00,
2013-07-05 21:53:00,74.0,49.0,-100.00,ESE,103,0.0,11.0,41,0.00,,,0.00,107.000000,,2013-07-06 03:53:00,
2013-07-05 22:01:00,74.0,49.0,-100.00,ESE,103,0.0,11.0,41,0.00,,,0.00,107.000000,,2013-07-06 04:01:00,
2013-07-05 22:12:00,74.0,49.0,-100.00,ESE,103,0.0,11.0,41,0.00,,,0.00,107.000000,,2013-07-06 04:12:00,
2013-07-05 22:22:00,74.0,49.0,-100.00,ESE,103,0.0,11.0,41,0.00,,,0.00,107.000000,,2013-07-06 04:22:00,
2013-07-05 22:53:00,65.0,44.0,-100.00,SE,134,1.0,4.0,47,0.00,,,0.00,9.000000,,2013-07-06 04:53:00,
2013-07-05 23:02:00,65.0,44.0,-100.00,SE,134,1.0,4.0,47,0.00,,,0.00,9.000000,,2013-07-06 05:02:00,
2013-07-05 23:12:00,65.0,44.0,-100.00,SE,134,1.0,4.0,47,0.00,,,0.00,9.000000,,2013-07-06 05:12:00,
2013-07-05 23:22:00,65.0,44.0,-100.00,SE,134,1.0,4.0,47,0.00,,,0.00,9.000000,,2013-07-06 05:22:00,
2013-07-05 23:53:00,62.0,47.0,-100.00,SE,132,1.0,4.0,58,0.00,,,0.00,0.000000,,2013-07-06 05:53:00,